Location: Unspecified
(0.0000°N, 0.0000°E)
Time: 18:15:01
(UTC+00:00)

Amsat-Oscar-6 - Pass Details

Date: 19 June 2019
Orbit: 1448 x 1454 km, 101.8° (Epoch: 15 July)

Event Time Altitude Azimuth Distance (km) Brightness Sun altitude
Rises 02:36:50 0° 29° (NNE) 4,542 ? -45.6°
Reaches altitude 10° 02:39:46 10° 35° (NE) 3,566 ? -45.0°
Enters shadow 02:46:56 46° 93° (E) 1,878 ? -43.5°
